STARLINK-35803, 66568

Orbit data source: Space-Track

STARLINK-35803, 66568 is a payload satellite owned by SpaceX/Seattle (US) in LEO that was launched on Fri, 21 Nov 2025 UTC via an FALCON 9 launch vehicle from the Air Force Eastern Test Range (AFETR). Payload-class satellites include a variety of spacecraft equipped with specific instruments for various scientific and technological missions. These include communications satellites like Starlink; space stations such as the ISS; scientific satellites like the Hubble; Earth observation satellites from companies like Planet Labs, Umbra, and HawkEye 360; GPS; miniature CubeSats for education and research; and military/defense satellites.

Loading next visibility...
Identifier
66568, 2025-268M
Orbit
LEO
Country
Flag of USUS
Related business
Manufacturer
SpaceX/Seattle
Mission
Operational Commercial Communications
Bus & Motor
STARLINK V2MO, Unknown motor
Mass
575 kg wet, ~530 kg dry
Launch date (UTC)
2025-11-21 (7 months ago)
Launch vehicle
FALCON 9
Launch site
Air Force Eastern Test Range (AFETR)
Object type
Payload
Rocket body
Debris
Shape & HBR
Box + 2 Pan, 17.7 m
Radar Cross Section
36.964 m², Large (>1 m²)

Expand to show TLE details & history
Last TLE update: 16 hours ago

TLE from 16 hours ago
0 STARLINK-35803
1 66568U 25268M   26171.21401209  .00018361  00000-0  67522-3 0  9994
2 66568  43.0016 127.7012 0001298 277.8884  82.1821 15.27573549 33647
Epoch: 2026-06-20T05:08Z
TLE epoch observation values (Epoch: 2026-06-20T05:08:10.644Z)
Latitude
0.00002°
Longitude
142.22502°
Altitude
482.723 km
Speed
7.626 km/s
True Right ascension
08h 30m 48s
True Declination
0° 00' 00"
Sunlit
Object was in daylight at epoch
Visualization orbit readout
Latitude
Unknown
Longitude
Unknown
Altitude
Unknown
Speed
Unknown
Apparent Right ascension
Unknown
Apparent Declination
Unknown
Sunlit
N/A
Visualization observer readout
Local Sidereal Time
08:32:57
Azimuth
Unknown
Elevation
Unknown
Doppler factor
Unknown
Orbital elements
Apogee altitude
485.904 km
Perigee altitude
484.122 km
Semi-major axis
6,863.15 km
Eccentricity
0.00013
Inclination
43.0016°
RAAN
127.7012°
Arg. of periapsis
277.8884°
True anomaly
82.19684°
Mean anomaly
82.1821°
Eccentric anomaly
82.18947°
Mean motion
3.81731 °/min
Orbital period
94.31 mins
BSTAR
0.00067522
Loading maneuver chart data...
Computing Atmospheric mass density...
Loading historical data...
Loading historical data...
Loading historical data...
Loading historical data...
Loading historical data...
Loading historical data...
Loading historical data...

Documentation

Showing up to 5 results
|